Solander Island, British Columbia

6:40 AM PDT on April 23, 2017 (GMT -0700)
Solander Island

Weather History for CWRU - February, 2014

Change the Weather History Date:

Friday, February 7, 2014

  Actual Average Record
Temperature  
Mean Temperature 32 °F -  
Max Temperature 38 °F - - ()
Min Temperature 25 °F - - ()
Degree Days  
Heating Degree Days 34    
Moisture  
Dew Point 19 °F    
Average Humidity 60    
Maximum Humidity 100    
Minimum Humidity 28    
Precipitation  
Precipitation 0.00 in - - ()
Sea Level Pressure  
Sea Level Pressure 29.80 in    
Wind  
Wind Speed 15 mph ()    
Max Wind Speed 33 mph    
Max Gust Speed 39 mph    
T = Trace of Precipitation, MM = Missing Value Source: Averaged Metar Reports

Daily Weather History Graph

Daily Weather History Graph

Search for Another Location

Airport or City:

Trip Planner

Search our weather history database for the weather conditions in past years. The results will help you decide how hot, cold, wet, or windy it might be!

Date:

Astronomy

Feb. 07, 2014 Rise Set
Actual Time 7:56 AM PST 5:36 PM PST
Civil Twilight 7:21 AM PST 6:10 PM PST
Nautical Twilight 6:43 AM PST 6:49 PM PST
Astronomical Twilight 6:05 AM PST 7:26 PM PST
Moon 11:45 AM PST (2/7) 2:23 AM PST (2/7)
Length of Visible Light 10h 48m
Length of Day
9h 40m
First Quarter, 60% of the Moon is Illuminated
Feb 7
First Quarter
Feb 14
Full
Feb 22
Last Quarter
Mar 1
New
Mar 8
First Quarter

Hourly Weather History & Observations

Time (PST) Temp. Windchill Dew Point Humidity Pressure Visibility Wind Dir Wind Speed Gust Speed Precip Events Conditions
12:00 AM 27.0 °F 15.6 °F 26.6 °F 99% 29.78 in - ESE 13.8 mph - N/A   Unknown
1:00 AM 26.4 °F 16.0 °F 26.4 °F 100% 29.78 in - East 11.5 mph - N/A   Unknown
2:00 AM 28.2 °F 21.0 °F 25.2 °F 88% 29.78 in - East 6.9 mph - N/A   Unknown
3:00 AM 28.4 °F 19.1 °F 23.0 °F 80% 29.78 in - East 10.4 mph - N/A   Unknown
4:00 AM 29 °F - 20 °F 58% 29.77 in - ESE 16.1 mph - -  
4:00 AM 31.1 °F 20.1 °F 20.1 °F 64% 29.77 in - ESE 16.1 mph - N/A   Unknown
5:00 AM 29.7 °F 17.1 °F 18.5 °F 63% 29.77 in - ESE 19.6 mph 25.3 mph N/A   Unknown
6:00 AM 29.7 °F 15.8 °F 21.4 °F 71% 29.77 in - ESE 24.2 mph 32.2 mph N/A   Unknown
7:00 AM 29.7 °F 15.5 °F 20.5 °F 69% 29.77 in - ESE 25.3 mph 31.1 mph N/A   Unknown
8:00 AM 30.0 °F 14.9 °F 22.3 °F 73% 29.77 in - ESE 29.9 mph 36.8 mph N/A   Unknown
9:00 AM 31.1 °F 16.6 °F 20.7 °F 65% 29.79 in - ESE 28.8 mph 34.5 mph N/A   Unknown
10:00 AM 31 °F - 17 °F 44% 29.80 in - ESE 29.9 mph - -  
10:00 AM 31.5 °F 16.9 °F 17.4 °F 56% 29.80 in - ESE 29.9 mph 35.7 mph N/A   Unknown
11:00 AM 32.9 °F 18.2 °F 17.8 °F 54% 29.80 in - ESE 33.4 mph 39.1 mph N/A   Unknown
12:00 PM 33.8 °F 20.5 °F 18.1 °F 53% 29.82 in - ESE 27.6 mph - N/A   Unknown
1:00 PM 34.2 °F 23.0 °F 12.6 °F 41% 29.82 in - ESE 19.6 mph 27.6 mph N/A   Unknown
2:00 PM 33.6 °F 24.1 °F 14.9 °F 46% 29.82 in - ESE 13.8 mph 19.6 mph N/A   Unknown
3:00 PM 35.2 °F 28.1 °F 9.9 °F 35% 29.82 in - SE 9.2 mph - N/A   Unknown
4:00 PM 35 °F - 14 °F 28% 29.82 in - SSE 9.2 mph - -  
4:00 PM 35.2 °F 28.1 °F 13.8 °F 41% 29.82 in - SSE 9.2 mph - N/A   Unknown
5:00 PM 36.1 °F - 9.9 °F 34% 29.82 in - SE 2.3 mph - N/A   Unknown
6:00 PM 34.2 °F 25.7 °F 17.1 °F 50% 29.81 in - North 11.5 mph - N/A   Unknown
7:00 PM 33.8 °F 25.8 °F 22.1 °F 62% 29.80 in - NNE 10.4 mph - N/A   Unknown
8:00 PM 33.4 °F 24.3 °F 22.8 °F 65% 29.80 in - NE 12.7 mph - N/A   Unknown
9:00 PM 33.3 °F 24.6 °F 21.9 °F 63% 29.81 in - NE 11.5 mph - N/A   Unknown
10:00 PM 33 °F - 21 °F 50% 29.82 in - NNE 9.2 mph - -  
10:00 PM 33.1 °F 25.5 °F 21.2 °F 62% 29.82 in - NNE 9.2 mph - N/A   Unknown
11:00 PM 33.3 °F 26.4 °F 21.0 °F 61% 29.83 in - NNE 8.1 mph - N/A   Unknown